SUNNYSIDE Weather Reports


time (UTC)temp
F
wind
direction
speed
knots
gust
knots
rain 1hr
in
rain 24hr
in
rain mn
in
humidity
%
barometer
mb
20260901231045 70 355 2.6 7.0 0.00 0.02 0.00 48 982.8
20260901230543 70 343 3.5 7.0 0.00 0.02 0.00 46 982.8
20260901230043 70 339 2.6 7.0 0.00 0.02 0.00 47 982.7
20260901225543 70 360 3.5 7.0 0.00 0.02 0.00 46 982.7
20260901225042 70 308 3.5 7.0 0.00 0.02 0.00 46 982.8
20260901224542 70 360 2.6 7.0 0.00 0.02 0.00 46 982.8
20260901224042 70 296 3.5 7.0 0.00 0.02 0.00 46 982.8
20260901223542 70 360 2.6 4.3 0.00 0.02 0.00 47 982.6
20260901223042 70 346 1.7 5.2 0.00 0.02 0.00 47 982.7
20260901222543 70 350 2.6 7.0 0.00 0.02 0.00 46 982.7
20260901222041 70 349 2.6 7.0 0.00 0.02 0.00 47 982.6
20260901221541 70 360 3.5 6.1 0.00 0.02 0.00 47 982.7
20260901221041 70 270 2.6 5.2 0.00 0.02 0.00 46 982.6
20260901220541 70 348 2.6 4.3 0.00 0.02 0.00 46 982.7
20260901220106 70 300 0.9 5.2 0.00 0.02 0.00 46 982.6
20260901215540 70 300 2.6 5.2 0.00 0.02 0.00 46 982.6
20260901215040 70 306 1.7 4.3 0.00 0.02 0.00 46 982.5
20260901214539 70 5 0.0 5.2 0.00 0.02 0.00 46 982.5
20260901214039 70 35 2.6 7.8 0.00 0.02 0.00 46 982.6
20260901213540 70 345 2.6 7.8 0.00 0.02 0.00 46 982.6
20260901213105 71 9 3.5 7.8 0.00 0.02 0.00 45 982.5
20260901212539 71 360 4.3 7.8 0.00 0.02 0.00 45 982.6
20260901212038 71 360 1.7 5.2 0.00 0.02 0.00 46 982.6
20260901211538 71 338 2.6 8.7 0.00 0.02 0.00 46 982.5
20260901211037 70 360 4.3 8.7 0.00 0.02 0.00 45 982.4
20260901210537 70 360 3.5 8.7 0.00 0.02 0.00 45 982.3
20260901210047 70 294 5.2 8.7 0.00 0.02 0.00 45 982.4
20260901205538 70 304 3.5 7.0 0.00 0.02 0.00 44 982.3
20260901205038 70 342 4.3 9.6 0.00 0.02 0.00 44 982.4
20260901204539 71 290 5.2 10.4 0.00 0.02 0.00 43 982.2
20260901204039 71 307 6.1 10.4 0.00 0.02 0.00 43 982.2
20260901203537 71 294 7.0 10.4 0.00 0.02 0.00 43 982.2
20260901203052 71 360 6.1 10.4 0.00 0.02 0.00 43 982.3
20260901202535 70 269 4.3 9.6 0.00 0.02 0.00 46 982.2
20260901202041 70 269 6.1 9.6 0.00 0.02 0.00 46 982.2
20260901201534 70 272 3.5 8.7 0.00 0.02 0.00 46 982.3
20260901201034 70 242 3.5 8.7 0.00 0.02 0.00 46 982.3
20260901200535 70 277 4.3 11.3 0.00 0.02 0.00 45 982.4
20260901200034 70 293 6.1 11.3 0.00 0.02 0.00 45 982.2
20260901195533 70 285 6.1 12.2 0.00 0.02 0.00 45 982.3
20260901195034 70 279 6.1 12.2 0.00 0.02 0.00 44 982.3
20260901194540 70 360 5.2 9.6 0.00 0.02 0.00 45 982.2
20260901194032 70 360 5.2 8.7 0.00 0.02 0.00 44 982.2
20260901193532 70 277 4.3 11.3 0.00 0.02 0.00 45 982.3
20260901193037 70 267 7.0 11.3 0.00 0.02 0.00 43 982.2
20260901192531 70 281 5.2 10.4 0.00 0.02 0.00 44 982.3
20260901192030 69 248 5.2 10.4 0.00 0.02 0.00 44 982.3
20260901191534 69 270 7.0 11.3 0.00 0.02 0.00 45 982.3
20260901191033 69 271 6.1 13.9 0.00 0.02 0.00 45 982.3
20260901190529 69 252 7.8 13.9 0.00 0.02 0.00 45 982.4
20260901190030 69 360 6.1 12.2 0.00 0.02 0.00 45 982.4
20260901185529 69 247 7.8 12.2 0.00 0.02 0.00 45 982.4
20260901185029 69 246 7.0 12.2 0.00 0.02 0.00 45 982.4
20260901184532 69 360 7.0 10.4 0.00 0.02 0.00 46 982.3
20260901184028 69 270 5.2 14.8 0.00 0.02 0.00 46 982.3
20260901183529 69 282 7.0 14.8 0.00 0.02 0.00 45 982.3
20260901183038 69 360 8.7 12.2 0.00 0.02 0.00 46 982.4
20260901182526 69 360 7.0 12.2 0.00 0.02 0.00 46 982.3
20260901182026 68 277 8.7 15.6 0.00 0.02 0.00 45 982.2
20260901181526 68 290 7.8 15.6 0.00 0.02 0.00 45 982.2
20260901181023 68 290 7.8 13.0 0.00 0.02 0.00 48 982.2
20260901180527 68 263 7.8 11.3 0.00 0.02 0.00 47 982.2
20260901180022 67 360 7.0 12.2 0.00 0.02 0.00 48 982.1
20260901175523 67 277 7.8 13.9 0.00 0.02 0.00 47 982.3
20260901175020 67 243 9.6 13.9 0.00 0.02 0.00 47 982.3
20260901174520 67 249 8.7 13.9 0.00 0.02 0.00 47 982.3
20260901174021 67 300 7.8 12.2 0.00 0.02 0.00 47 982.4
20260901173522 67 306 8.7 13.0 0.00 0.02 0.00 48 982.4
20260901173031 67 234 7.0 13.0 0.00 0.02 0.00 48 982.3
20260901172520 66 227 8.7 13.0 0.00 0.02 0.00 48 982.3
20260901172020 66 245 7.8 13.0 0.00 0.02 0.00 49 982.4
20260901171520 66 246 7.8 13.9 0.00 0.02 0.00 49 982.4
20260901171021 66 286 9.6 15.6 0.00 0.02 0.00 49 982.3
20260901170518 66 288 9.6 15.6 0.00 0.02 0.00 49 982.3
20260901170018 66 244 7.8 13.0 0.00 0.02 0.00 49 982.2
20260901165517 66 254 7.8 13.0 0.00 0.02 0.00 49 982.2
20260901165017 66 281 6.1 13.9 0.00 0.02 0.00 49 982.2
20260901164519 66 360 7.0 13.9 0.00 0.02 0.00 48 982.1
20260901164017 66 253 7.0 11.3 0.00 0.02 0.00 48 982.1
20260901163517 66 360 7.8 11.3 0.00 0.02 0.00 48 982.1
20260901163017 66 232 6.1 11.3 0.00 0.02 0.00 48 982.0
20260901162517 66 360 5.2 9.6 0.00 0.02 0.00 48 982.2
20260901162016 66 247 5.2 10.4 0.00 0.02 0.00 48 981.9
20260901161516 66 277 6.1 12.2 0.00 0.02 0.00 47 982.0
20260901161016 66 307 6.1 12.2 0.00 0.02 0.00 47 981.9
20260901160515 66 283 5.2 12.2 0.00 0.02 0.00 48 981.8
20260901160015 66 275 7.8 12.2 0.00 0.02 0.00 47 981.9
20260901155515 67 261 7.8 12.2 0.00 0.02 0.00 47 981.9
20260901155014 67 360 7.8 12.2 0.00 0.02 0.00 47 981.7
20260901154513 67 260 6.1 13.0 0.00 0.02 0.00 48 981.6
20260901154013 67 264 6.1 17.4 0.00 0.02 0.00 46 981.7
20260901153513 67 271 7.0 17.4 0.00 0.02 0.00 48 981.5
20260901153012 67 272 7.8 13.9 0.00 0.02 0.00 47 981.5
20260901152510 67 254 8.7 13.9 0.00 0.02 0.00 47 981.3
20260901152008 66 268 7.8 14.8 0.00 0.02 0.00 47 981.5
20260901151510 66 277 7.8 14.8 0.00 0.02 0.00 48 981.4
20260901151005 66 360 7.8 14.8 0.00 0.02 0.00 48 981.3
20260901150504 66 243 8.7 13.0 0.00 0.02 0.00 48 981.2
20260901150003 66 262 7.8 13.0 0.00 0.02 0.00 49 981.2
20260901145501 65 241 6.1 14.8 0.00 0.02 0.00 49 981.2
20260901145002 65 304 7.8 15.6 0.00 0.02 0.00 49 981.2
20260901144601 65 248 9.6 15.6 0.00 0.02 0.00 49 981.1
20260901144058 65 360 9.6 14.8 0.00 0.02 0.00 49 981.0
20260901143557 65 269 8.7 15.6 0.00 0.02 0.00 49 980.9
20260901143056 65 248 10.4 13.9 0.00 0.02 0.00 49 981.0
20260901142554 64 360 9.6 16.5 0.00 0.02 0.00 49 980.8
20260901142052 64 284 11.3 16.5 0.00 0.02 0.00 50 980.8
20260901141552 64 263 7.8 13.9 0.00 0.02 0.00 51 980.7
20260901141050 64 237 8.7 13.0 0.00 0.02 0.00 51 980.7
20260901140548 63 360 7.0 13.0 0.00 0.02 0.00 52 980.5
20260901140058 63 272 7.0 12.2 0.00 0.02 0.00 52 980.6
20260901135545 63 243 7.8 12.2 0.00 0.02 0.00 52 980.4
20260901135044 63 360 7.8 12.2 0.00 0.02 0.00 53 980.3
20260901134604 62 360 7.8 12.2 0.00 0.02 0.00 53 980.1
20260901134044 62 244 7.0 12.2 0.00 0.02 0.00 53 980.1
20260901133542 62 293 7.0 12.2 0.00 0.02 0.00 54 980.0
20260901133046 62 243 7.8 13.0 0.00 0.02 0.00 55 980.0
20260901132540 61 276 8.7 12.2 0.00 0.02 0.00 55 980.1
20260901132042 61 244 8.7 13.0 0.00 0.02 0.00 57 980.1
20260901131539 61 275 7.8 13.0 0.00 0.02 0.00 58 980.0
20260901131038 60 236 7.0 13.0 0.00 0.02 0.00 58 980.1
20260901130535 60 228 7.8 14.8 0.00 0.02 0.00 59 980.2
20260901130040 60 240 7.0 14.8 0.00 0.02 0.00 61 980.2
20260901125535 59 239 7.8 13.0 0.00 0.02 0.00 62 980.1
20260901125033 59 234 7.0 11.3 0.00 0.02 0.00 62 980.0
20260901124533 59 239 6.1 13.9 0.00 0.02 0.00 63 979.9
20260901124035 59 236 8.7 13.9 0.00 0.02 0.00 64 979.9
20260901123533 58 235 7.0 10.4 0.00 0.02 0.00 64 979.8
20260901123034 58 245 5.2 9.6 0.00 0.02 0.00 64 979.8
20260901122532 58 232 6.1 9.6 0.00 0.02 0.00 64 979.7
20260901122033 58 228 5.2 7.8 0.00 0.02 0.00 64 979.6
20260901121530 58 247 4.3 8.7 0.00 0.02 0.00 64 979.5
20260901121031 58 242 5.2 7.8 0.00 0.02 0.00 64 979.4
20260901120528 58 244 4.3 7.8 0.00 0.02 0.00 64 979.5
20260901120047 58 360 4.3 7.8 0.00 0.02 0.00 64 979.4
20260901115528 58 254 3.5 7.0 0.00 0.02 0.00 64 979.3
20260901115032 58 360 2.6 8.7 0.00 0.02 0.00 64 979.1
20260901114528 58 242 4.3 8.7 0.00 0.02 0.00 64 979.2
20260901114027 58 227 4.3 7.0 0.00 0.02 0.00 64 979.2
20260901113526 58 240 3.5 7.8 0.00 0.02 0.00 63 979.1
20260901113026 58 360 4.3 7.8 0.00 0.02 0.00 63 979.0
20260901112526 58 230 4.3 7.8 0.00 0.02 0.00 63 978.9
20260901112028 58 240 4.3 7.8 0.00 0.02 0.00 63 979.0
20260901111525 58 231 3.5 7.0 0.00 0.02 0.00 62 978.9
20260901111024 58 231 4.3 7.0 0.00 0.02 0.00 62 979.0
20260901110524 58 238 4.3 7.8 0.00 0.02 0.00 62 978.9
20260901110024 58 244 3.5 7.0 0.00 0.02 0.00 62 978.8
20260901105527 58 235 3.5 7.0 0.00 0.02 0.00 61 978.8
20260901105027 59 360 3.5 8.7 0.00 0.02 0.00 61 978.7
20260901104525 59 236 5.2 8.7 0.00 0.02 0.00 61 978.8
20260901104126 59 234 5.2 7.8 0.00 0.02 0.00 61 978.7
20260901103529 59 236 5.2 7.8 0.00 0.02 0.00 61 978.8
20260901103027 59 240 5.2 7.8 0.00 0.02 0.00 61 978.8
20260901102525 59 236 5.2 9.6 0.00 0.02 0.00 61 978.8
20260901102022 60 244 5.2 9.6 0.00 0.02 0.00 61 978.7
20260901101521 60 242 6.1 10.4 0.00 0.02 0.00 61 978.7
20260901101020 60 240 5.2 10.4 0.00 0.02 0.00 62 978.7
20260901100521 60 216 5.2 8.7 0.00 0.02 0.00 63 978.6
20260901100019 59 229 3.5 7.8 0.00 0.02 0.00 63 978.5
20260901095519 59 225 3.5 7.8 0.00 0.02 0.00 63 978.6
20260901095019 59 226 3.5 7.8 0.00 0.02 0.00 64 978.5
20260901094523 59 198 2.6 7.8 0.00 0.02 0.00 64 978.5
20260901094017 59 232 2.6 7.8 0.00 0.02 0.00 64 978.5
20260901093519 59 234 2.6 7.8 0.00 0.02 0.00 64 978.5
20260901093015 58 234 3.5 7.8 0.00 0.02 0.00 65 978.6
20260901092516 58 222 3.5 6.1 0.00 0.02 0.00 65 978.7
20260901092015 58 225 2.6 10.4 0.00 0.02 0.00 64 978.7
20260901091514 57 233 4.3 10.4 0.00 0.02 0.00 64 978.7
20260901091013 57 240 3.5 8.7 0.00 0.02 0.00 63 978.6
20260901090513 57 242 4.3 8.7 0.00 0.02 0.00 63 978.5
20260901090013 57 236 5.2 8.7 0.00 0.02 0.00 62 978.6
20260901085512 57 225 4.3 7.8 0.00 0.02 0.00 62 978.5
20260901085011 57 240 5.2 8.7 0.00 0.02 0.00 61 978.5
20260901084512 57 238 4.3 7.8 0.00 0.02 0.00 61 978.5
20260901084011 57 244 4.3 9.6 0.00 0.02 0.00 61 978.5
20260901083511 57 234 6.1 11.3 0.00 0.02 0.00 61 978.6
20260901083011 57 234 7.8 11.3 0.00 0.02 0.00 61 978.5
20260901082508 57 227 5.2 11.3 0.00 0.02 0.00 61 978.5
20260901082010 57 225 7.0 9.6 0.00 0.02 0.00 61 978.5
20260901081509 57 236 6.1 10.4 0.00 0.02 0.00 61 978.5
20260901081006 57 240 6.1 10.4 0.00 0.02 0.00 61 978.4
20260901080506 57 248 5.2 9.6 0.00 0.02 0.00 61 978.4
20260901080005 57 231 6.1 9.6 0.00 0.02 0.00 61 978.4
20260901075506 57 242 5.2 10.4 0.00 0.02 0.00 61 978.3
20260901075005 57 242 5.2 9.6 0.00 0.02 0.00 61 978.4
20260901074507 57 224 6.1 9.6 0.00 0.02 0.00 61 978.3
20260901074003 57 254 5.2 9.6 0.00 0.02 0.00 61 978.3
20260901073503 57 360 5.2 9.6 0.00 0.02 0.00 60 978.3
20260901073003 57 360 6.1 11.3 0.00 0.02 0.00 61 978.4
20260901072501 57 244 6.1 11.3 0.00 0.02 0.00 61 978.4
20260901072001 57 242 6.1 12.2 0.00 0.02 0.00 61 978.4
20260901071502 57 240 7.0 12.2 0.00 0.02 0.00 61 978.4
20260901071059 57 360 6.1 10.4 0.00 0.02 0.00 61 978.3
20260901070558 57 234 4.3 10.4 0.00 0.02 0.00 60 978.3
20260901070104 58 233 6.1 10.4 0.00 0.02 0.00 61 978.3
20260901065557 58 248 6.1 9.6 0.00 0.09 0.00 61 978.3
20260901065056 58 244 6.1 8.7 0.00 0.09 0.00 60 978.1
20260901064556 58 227 5.2 8.7 0.00 0.09 0.00 60 978.1
20260901064056 58 229 4.3 9.6 0.00 0.09 0.00 60 978.2
20260901063556 58 360 4.3 9.6 0.00 0.09 0.00 60 978.1
20260901063054 58 242 6.1 8.7 0.00 0.09 0.00 60 978.1
20260901062554 58 242 5.2 10.4 0.00 0.09 0.00 60 978.1
20260901062054 58 360 5.2 10.4 0.00 0.09 0.00 60 978.1
20260901061554 58 247 5.2 8.7 0.00 0.09 0.00 60 978.1
20260901061053 58 238 5.2 9.6 0.00 0.09 0.00 60 978.1
20260901060554 58 252 6.1 9.6 0.00 0.09 0.00 60 977.9
20260901060051 58 360 4.3 8.7 0.00 0.09 0.00 60 977.9
20260901055550 58 360 4.3 7.8 0.00 1.42 0.00 59 977.9
20260901055050 58 245 4.3 7.8 0.00 1.42 0.00 59 977.8
20260901054549 58 244 3.5 7.8 0.00 1.42 0.00 59 977.8
20260901054049 58 245 4.3 10.4 0.00 1.42 0.00 59 977.7
20260901053553 58 236 5.2 10.4 0.00 1.42 0.00 59 977.6
20260901053115 58 242 6.1 8.7 0.00 1.42 0.00 59 977.5
20260901052546 58 233 3.5 7.0 0.00 1.42 0.00 58 977.4
20260901052045 58 248 3.5 7.0 0.00 1.42 0.00 58 977.6
20260901051602 58 240 4.3 8.7 0.00 1.42 0.00 57 977.7
20260901051043 58 236 4.3 8.7 0.00 1.42 0.00 57 977.6
20260901050542 59 235 6.1 8.7 0.00 1.42 0.00 57 977.6
20260901050041 59 242 5.2 8.7 0.00 1.42 0.00 57 977.4
20260901045540 59 239 7.0 8.7 0.00 1.97 0.00 57 977.5
20260901045040 59 244 5.2 7.8 0.00 1.97 0.00 57 977.4
20260901044552 59 239 6.1 9.6 0.00 1.97 0.00 57 977.4
20260901044039 59 240 5.2 9.6 0.00 1.97 0.00 58 977.3
20260901043538 58 229 6.1 8.7 0.00 1.97 0.00 58 977.2
20260901043038 58 233 4.3 7.0 0.00 1.97 0.00 58 977.2
20260901042537 58 236 3.5 6.1 0.00 1.97 0.00 58 977.2
20260901042036 58 226 3.5 6.1 0.00 1.97 0.00 57 977.2
20260901041536 58 224 3.5 7.8 0.00 1.97 0.00 57 977.1
20260901041035 58 237 4.3 8.7 0.00 1.97 0.00 57 977.1
20260901040534 58 230 4.3 7.0 0.00 1.97 0.00 57 977.1
20260901040039 58 221 3.5 7.8 0.00 1.97 0.00 56 977.0
20260901035534 58 236 2.6 7.0 0.00 1.97 0.00 56 977.0
20260901035033 58 227 2.6 5.2 0.00 1.97 0.00 55 977.0
20260901034532 58 217 1.7 5.2 0.00 1.97 0.00 54 976.9
20260901034031 59 229 0.9 6.1 0.00 1.97 0.00 54 976.9
20260901033531 59 239 2.6 6.1 0.00 1.97 0.00 54 977.0
20260901033033 59 236 0.9 4.3 0.00 1.97 0.00 54 976.9
20260901032530 59 223 0.9 2.6 0.00 1.97 0.00 54 976.8
20260901032029 59 223 0.0 4.3 0.00 1.97 0.00 54 976.8
20260901031532 59 219 0.0 4.3 0.00 1.97 0.00 54 976.8
20260901031030 59 225 0.9 5.2 0.00 1.97 0.00 54 976.7
20260901030527 59 228 2.6 5.2 0.00 1.97 0.00 54 976.8
20260901030028 59 224 3.5 6.1 0.00 1.97 0.00 54 976.7
20260901025526 59 229 2.6 5.2 0.00 1.97 0.00 54 976.7
20260901025027 59 233 1.7 5.2 0.00 1.97 0.00 54 976.5
20260901024525 59 225 3.5 5.2 0.00 1.97 0.00 55 976.6
20260901024028 58 236 1.7 4.3 0.00 1.97 0.00 55 976.5
20260901023525 58 237 1.7 4.3 0.00 1.97 0.00 55 976.6
20260901023036 58 240 1.7 4.3 0.00 1.97 0.00 54 976.5
20260901022523 59 234 1.7 4.3 0.00 1.97 0.00 53 976.5
20260901022023 59 240 2.6 5.2 0.00 1.97 0.00 53 976.5
20260901021524 59 237 2.6 5.2 0.00 1.97 0.00 53 976.4
20260901010526 62 360 7.0 10.4 0.00 1.97 0.02 51 975.6
20260901010024 62 360 5.2 12.2 0.00 1.97 0.02 50 975.6
20260901005525 63 244 7.0 12.2 0.00 1.97 0.02 50 975.4
20260901005025 63 218 7.8 13.9 0.00 1.97 0.02 49 975.2
20260901004523 63 240 9.6 13.9 0.00 1.97 0.02 49 975.1
20260901004021 63 232 9.6 13.9 0.00 1.97 0.02 49 975.2
20260901003520 63 234 9.6 15.6 0.01 1.97 0.02 50 975.1
20260901003019 63 234 9.6 15.6 0.02 1.97 0.02 51 974.9
20260831232056 68 232 13.0 20.0 0.00 1.95 1.40 52 973.3
20260831231557 68 229 13.0 27.8 0.00 1.95 1.40 53 973.2